Location: Fours
(44.3167°N, 6.7000°E)
Time: 10:52:40
(UTC+00:00)

Cosmos 2227 - Pass Details

Date: 12 December 2023
Orbit: 836 x 859 km, 71.0° (Epoch: 21 February)

Event Time Altitude Azimuth Distance (km) Brightness Sun altitude
Rises 18:15:38 0° 274° (W) 3,429 8.7 -24.4°
Reaches altitude 10° 18:20:47 10° 313° (NW) 2,492 7.1 -25.3°
Maximum altitude 18:21:48 10° 324° (NW) 2,460 6.9 -25.5°
Drops below altitude 10° 18:22:50 10° 334° (NNW) 2,491 6.8 -25.7°
Enters shadow 18:26:08 - 3° (N) 2,972 6.9 -26.2°
